Time,TemperatureF,DewpointF,PressureIn,WindDirection,WindDirectionDegrees,WindSpeedMPH,WindSpeedGustMPH,Humidity,HourlyPrecipIn,Conditions,Clouds,dailyrainin,SoftwareType,DateUTC
2013-06-18 00:02:00,63.0,61.0,-100.00,East,90,14.0,35.0,94,0.55,,,-99.99,,2013-06-18 04:02:00,
2013-06-18 00:12:00,62.0,60.0,-100.00,East,95,10.0,20.0,94,0.00,,,-99.99,,2013-06-18 04:12:00,
2013-06-18 00:23:00,62.0,60.0,-100.00,SE,125,7.0,19.0,95,5.67,,,-99.99,,2013-06-18 04:23:00,
2013-06-18 00:34:00,61.0,60.0,-100.00,SE,135,2.0,12.0,96,0.00,,,-99.99,,2013-06-18 04:34:00,
2013-06-18 00:43:00,61.0,60.0,-100.00,East,100,7.0,13.0,96,0.55,,,-99.99,,2013-06-18 04:43:00,
2013-06-18 00:53:00,61.0,60.0,-100.00,SSW,195,6.0,14.0,96,0.00,,,-99.99,,2013-06-18 04:53:00,
2013-06-18 01:02:00,61.0,60.0,-100.00,SSW,210,7.0,12.0,97,0.00,,,-99.99,,2013-06-18 05:02:00,
2013-06-18 01:12:00,61.0,60.0,-100.00,SSW,210,7.0,12.0,97,0.00,,,-99.99,,2013-06-18 05:12:00,
2013-06-18 01:22:00,61.0,60.0,-100.00,SW,235,6.0,12.0,97,0.00,,,-99.99,,2013-06-18 05:22:00,
2013-06-18 01:34:00,61.0,60.0,-100.00,East,95,6.0,7.0,97,0.00,,,-99.99,,2013-06-18 05:34:00,
2013-06-18 01:43:00,61.0,60.0,-100.00,SSE,160,4.0,4.0,97,0.00,,,-99.99,,2013-06-18 05:43:00,
2013-06-18 01:53:00,61.0,60.0,-100.00,SSE,160,4.0,4.0,97,0.00,,,-99.99,,2013-06-18 05:53:00,
2013-06-18 02:02:00,61.0,60.0,-100.00,SSE,160,4.0,4.0,97,0.00,,,-99.99,,2013-06-18 06:02:00,
2013-06-18 02:11:00,61.0,60.0,-100.00,West,265,6.0,9.0,97,0.00,,,-99.99,,2013-06-18 06:11:00,
2013-06-18 02:23:00,61.0,60.0,-100.00,WNW,285,6.0,9.0,97,0.00,,,-99.99,,2013-06-18 06:23:00,
2013-06-18 02:32:00,60.0,60.0,-100.00,SW,225,2.0,6.0,97,0.00,,,-99.99,,2013-06-18 06:32:00,
2013-06-18 02:43:00,61.0,60.0,-100.00,West,280,4.0,4.0,97,0.00,,,-99.99,,2013-06-18 06:43:00,
2013-06-18 02:52:00,61.0,60.0,-100.00,West,280,4.0,6.0,97,0.00,,,-99.99,,2013-06-18 06:52:00,
2013-06-18 03:02:00,61.0,60.0,-100.00,West,265,4.0,6.0,97,0.00,,,-99.99,,2013-06-18 07:02:00,
2013-06-18 03:12:00,60.0,60.0,-100.00,WNW,285,4.0,7.0,97,0.00,,,-99.99,,2013-06-18 07:12:00,
2013-06-18 03:22:00,60.0,60.0,-100.00,WNW,285,4.0,7.0,97,0.00,,,-99.99,,2013-06-18 07:22:00,
2013-06-18 03:33:00,60.0,60.0,-100.00,WNW,295,6.0,7.0,97,0.00,,,-99.99,,2013-06-18 07:33:00,
2013-06-18 03:43:00,60.0,60.0,-100.00,WNW,285,7.0,9.0,97,0.00,,,-99.99,,2013-06-18 07:43:00,
2013-06-18 03:53:00,60.0,60.0,-100.00,West,275,9.0,11.0,98,0.00,,,-99.99,,2013-06-18 07:53:00,
2013-06-18 04:02:00,60.0,60.0,-100.00,NW,310,4.0,14.0,98,0.00,,,-99.99,,2013-06-18 08:02:00,
2013-06-18 04:11:00,60.0,60.0,-100.00,NNW,330,4.0,9.0,98,0.00,,,-99.99,,2013-06-18 08:11:00,
2013-06-18 04:23:00,60.0,60.0,-100.00,WNW,300,7.0,9.0,98,0.00,,,-99.99,,2013-06-18 08:23:00,
2013-06-18 04:33:00,60.0,60.0,-100.00,WNW,295,6.0,9.0,98,0.00,,,-99.99,,2013-06-18 08:33:00,
2013-06-18 04:43:00,60.0,59.0,-100.00,NW,305,6.0,9.0,98,0.00,,,-99.99,,2013-06-18 08:43:00,
2013-06-18 04:52:00,60.0,59.0,-100.00,WNW,295,6.0,10.0,98,0.00,,,-99.99,,2013-06-18 08:52:00,
2013-06-18 05:02:00,60.0,60.0,-100.00,NNW,335,5.0,10.0,98,0.00,,,-99.99,,2013-06-18 09:02:00,
2013-06-18 05:12:00,60.0,59.0,-100.00,NW,310,6.0,8.0,98,0.00,,,-99.99,,2013-06-18 09:12:00,
2013-06-18 05:22:00,60.0,59.0,-100.00,NW,310,6.0,8.0,98,0.00,,,-99.99,,2013-06-18 09:22:00,
2013-06-18 05:34:00,60.0,60.0,-100.00,NW,305,6.0,9.0,98,0.00,,,-99.99,,2013-06-18 09:34:00,
2013-06-18 05:43:00,60.0,59.0,-100.00,NW,305,5.0,6.0,98,0.00,,,-99.99,,2013-06-18 09:43:00,
2013-06-18 05:53:00,60.0,60.0,-100.00,WNW,300,6.0,8.0,98,0.00,,,-99.99,,2013-06-18 09:53:00,
2013-06-18 06:02:00,60.0,60.0,-100.00,WNW,300,6.0,8.0,98,0.00,,,-99.99,,2013-06-18 10:02:00,
2013-06-18 06:11:00,60.0,59.0,-100.00,ESE,105,4.0,6.0,98,0.00,,,-99.99,,2013-06-18 10:11:00,
2013-06-18 06:22:00,60.0,60.0,-100.00,East,85,6.0,9.0,98,0.00,,,-99.99,,2013-06-18 10:22:00,
2013-06-18 06:33:00,60.0,60.0,-100.00,South,180,3.0,11.0,98,0.00,,,-99.99,,2013-06-18 10:33:00,
2013-06-18 06:43:00,60.0,60.0,-100.00,South,190,4.0,6.0,98,0.00,,,-99.99,,2013-06-18 10:43:00,
2013-06-18 06:53:00,60.0,60.0,-100.00,SW,225,3.0,8.0,98,0.00,,,-99.99,,2013-06-18 10:53:00,
2013-06-18 07:02:00,60.0,60.0,-100.00,SW,225,3.0,8.0,98,0.00,,,-99.99,,2013-06-18 11:02:00,
2013-06-18 07:11:00,60.0,60.0,-100.00,West,265,4.0,6.0,98,0.00,,,-99.99,,2013-06-18 11:11:00,
2013-06-18 07:22:00,60.0,60.0,-100.00,WNW,300,3.0,7.0,98,0.00,,,-99.99,,2013-06-18 11:22:00,
2013-06-18 07:32:00,61.0,60.0,-100.00,West,275,3.0,6.0,98,0.00,,,-99.99,,2013-06-18 11:32:00,
2013-06-18 07:43:00,61.0,61.0,-100.00,SE,140,2.0,4.0,98,0.00,,,-99.99,,2013-06-18 11:43:00,
2013-06-18 07:52:00,62.0,61.0,-100.00,SE,125,2.0,3.0,98,0.00,,,-99.99,,2013-06-18 11:52:00,
2013-06-18 08:01:00,62.0,61.0,-100.00,SE,125,2.0,3.0,98,0.00,,,-99.99,,2013-06-18 12:01:00,
2013-06-18 08:11:00,62.0,62.0,-100.00,SSE,155,1.0,4.0,98,0.00,,,-99.99,,2013-06-18 12:11:00,
2013-06-18 08:22:00,63.0,63.0,-100.00,South,190,1.0,3.0,98,0.00,,,-99.99,,2013-06-18 12:22:00,
2013-06-18 08:33:00,62.0,62.0,-100.00,South,180,4.0,6.0,97,0.00,,,-99.99,,2013-06-18 12:33:00,
2013-06-18 08:43:00,63.0,62.0,-100.00,SW,220,3.0,5.0,97,0.00,,,-99.99,,2013-06-18 12:43:00,
2013-06-18 08:52:00,63.0,62.0,-100.00,South,185,3.0,5.0,97,0.00,,,-99.99,,2013-06-18 12:52:00,
2013-06-18 09:02:00,63.0,62.0,-100.00,South,185,3.0,5.0,97,0.00,,,-99.99,,2013-06-18 13:02:00,
2013-06-18 09:12:00,64.0,63.0,-100.00,SSW,210,2.0,4.0,97,0.00,,,-99.99,,2013-06-18 13:12:00,
2013-06-18 09:22:00,64.0,63.0,-100.00,South,190,2.0,5.0,96,0.00,,,-99.99,,2013-06-18 13:22:00,
2013-06-18 09:33:00,64.0,63.0,-100.00,South,180,1.0,7.0,96,0.00,,,-99.99,,2013-06-18 13:33:00,
2013-06-18 09:43:00,65.0,63.0,-100.00,South,180,2.0,7.0,93,0.00,,,-99.99,,2013-06-18 13:43:00,
2013-06-18 09:52:00,65.0,63.0,-100.00,SW,215,1.0,7.0,92,0.00,,,-99.99,,2013-06-18 13:52:00,
2013-06-18 10:02:00,65.0,63.0,-100.00,SW,215,1.0,7.0,92,0.00,,,-99.99,,2013-06-18 14:02:00,
2013-06-18 10:11:00,65.0,63.0,-100.00,SSE,155,3.0,7.0,92,0.00,,,-99.99,,2013-06-18 14:11:00,
2013-06-18 10:22:00,66.0,63.0,-100.00,SE,135,3.0,6.0,90,0.00,,,-99.99,,2013-06-18 14:22:00,
2013-06-18 10:33:00,67.0,64.0,-100.00,SSE,160,2.0,7.0,88,0.00,,,-99.99,,2013-06-18 14:33:00,
2013-06-18 10:43:00,68.0,63.0,-100.00,SE,140,4.0,7.0,84,0.00,,,-99.99,,2013-06-18 14:43:00,
2013-06-18 10:53:00,69.0,63.0,-100.00,ESE,105,3.0,7.0,78,0.00,,,-99.99,,2013-06-18 14:53:00,
2013-06-18 11:02:00,69.0,63.0,-100.00,ESE,105,3.0,7.0,78,0.00,,,-99.99,,2013-06-18 15:02:00,
2013-06-18 11:11:00,70.0,60.0,-100.00,SSW,195,4.0,8.0,72,0.00,,,-99.99,,2013-06-18 15:11:00,
2013-06-18 11:22:00,71.0,60.0,-100.00,ESE,105,1.0,9.0,68,0.00,,,-99.99,,2013-06-18 15:22:00,
2013-06-18 11:33:00,72.0,62.0,-100.00,ESE,110,3.0,10.0,70,0.00,,,-99.99,,2013-06-18 15:33:00,
2013-06-18 11:43:00,72.0,61.0,-100.00,SE,125,4.0,9.0,68,0.00,,,-99.99,,2013-06-18 15:43:00,
2013-06-18 12:11:00,72.0,60.0,-100.00,South,180,6.0,11.0,68,0.00,,,-99.99,,2013-06-18 16:11:00,
2013-06-18 12:23:00,72.0,61.0,-100.00,ESE,105,3.0,14.0,66,0.00,,,-99.99,,2013-06-18 16:23:00,
2013-06-18 12:33:00,71.0,59.0,-100.00,South,185,7.0,11.0,65,0.00,,,-99.99,,2013-06-18 16:33:00,
2013-06-18 12:43:00,73.0,61.0,-100.00,East,100,4.0,9.0,65,0.00,,,-99.99,,2013-06-18 16:43:00,
2013-06-18 12:53:00,73.0,60.0,-100.00,ESE,110,4.0,11.0,62,0.00,,,-99.99,,2013-06-18 16:53:00,
2013-06-18 13:02:00,74.0,60.0,-100.00,ESE,120,5.0,11.0,62,0.00,,,-99.99,,2013-06-18 17:02:00,
2013-06-18 13:12:00,73.0,59.0,-100.00,SSW,195,7.0,12.0,62,0.00,,,-99.99,,2013-06-18 17:12:00,
2013-06-18 13:22:00,72.0,59.0,-100.00,South,185,4.0,10.0,63,0.00,,,-99.99,,2013-06-18 17:22:00,
2013-06-18 13:33:00,73.0,59.0,-100.00,South,170,4.0,10.0,62,0.00,,,-99.99,,2013-06-18 17:33:00,
2013-06-18 13:43:00,73.0,59.0,-100.00,ESE,115,4.0,10.0,63,0.00,,,-99.99,,2013-06-18 17:43:00,
2013-06-18 13:53:00,72.0,60.0,-100.00,South,175,3.0,12.0,64,0.00,,,-99.99,,2013-06-18 17:53:00,
2013-06-18 14:02:00,73.0,59.0,-100.00,ENE,70,4.0,11.0,63,0.00,,,-99.99,,2013-06-18 18:02:00,
2013-06-18 14:12:00,73.0,59.0,-100.00,ENE,70,4.0,11.0,63,0.00,,,-99.99,,2013-06-18 18:12:00,
2013-06-18 14:22:00,72.0,59.0,-100.00,ESE,120,4.0,11.0,63,0.00,,,-99.99,,2013-06-18 18:22:00,
2013-06-18 14:33:00,72.0,59.0,-100.00,ESE,115,4.0,12.0,63,0.00,,,-99.99,,2013-06-18 18:33:00,
2013-06-18 14:42:00,72.0,59.0,-100.00,ESE,115,6.0,12.0,64,0.00,,,-99.99,,2013-06-18 18:42:00,
2013-06-18 14:53:00,72.0,58.0,-100.00,East,80,5.0,17.0,62,0.00,,,-99.99,,2013-06-18 18:53:00,
2013-06-18 15:02:00,71.0,58.0,-100.00,ESE,105,7.0,13.0,63,0.00,,,-99.99,,2013-06-18 19:02:00,
2013-06-18 15:12:00,71.0,58.0,-100.00,ESE,110,6.0,15.0,62,0.00,,,-99.99,,2013-06-18 19:12:00,
2013-06-18 15:22:00,71.0,58.0,-100.00,SE,130,6.0,11.0,62,0.00,,,-99.99,,2013-06-18 19:22:00,
2013-06-18 15:33:00,71.0,58.0,-100.00,ESE,115,4.0,13.0,61,0.00,,,-99.99,,2013-06-18 19:33:00,
2013-06-18 15:43:00,72.0,58.0,-100.00,ESE,105,5.0,13.0,61,0.00,,,-99.99,,2013-06-18 19:43:00,
2013-06-18 15:52:00,70.0,56.0,-100.00,SSE,150,4.0,12.0,59,0.00,,,-99.99,,2013-06-18 19:52:00,
2013-06-18 16:02:00,69.0,56.0,-100.00,South,190,6.0,12.0,61,0.00,,,-99.99,,2013-06-18 20:02:00,
2013-06-18 16:11:00,70.0,55.0,-100.00,ESE,105,6.0,14.0,59,0.00,,,-99.99,,2013-06-18 20:11:00,
2013-06-18 16:23:00,69.0,55.0,-100.00,South,180,4.0,14.0,60,0.00,,,-99.99,,2013-06-18 20:23:00,
2013-06-18 16:33:00,71.0,56.0,-100.00,East,95,3.0,12.0,59,0.00,,,-99.99,,2013-06-18 20:33:00,
2013-06-18 16:43:00,70.0,55.0,-100.00,SE,125,4.0,14.0,59,0.00,,,-99.99,,2013-06-18 20:43:00,
2013-06-18 16:52:00,69.0,55.0,-100.00,SSW,200,4.0,12.0,60,0.00,,,-99.99,,2013-06-18 20:52:00,
2013-06-18 17:02:00,69.0,55.0,-100.00,SSW,200,4.0,12.0,60,0.00,,,-99.99,,2013-06-18 21:02:00,
2013-06-18 17:12:00,69.0,55.0,-100.00,East,100,7.0,14.0,60,0.00,,,-99.99,,2013-06-18 21:12:00,
2013-06-18 17:23:00,69.0,54.0,-100.00,ESE,110,9.0,16.0,60,0.00,,,-99.99,,2013-06-18 21:23:00,
2013-06-18 17:33:00,69.0,55.0,-100.00,ESE,120,3.0,13.0,60,0.00,,,-99.99,,2013-06-18 21:33:00,
2013-06-18 17:43:00,68.0,54.0,-100.00,East,100,6.0,16.0,59,0.00,,,-99.99,,2013-06-18 21:43:00,
2013-06-18 17:52:00,69.0,53.0,-100.00,East,95,4.0,14.0,57,0.00,,,-99.99,,2013-06-18 21:52:00,
2013-06-18 18:02:00,69.0,53.0,-100.00,South,180,5.0,16.0,56,0.00,,,-99.99,,2013-06-18 22:02:00,
2013-06-18 18:11:00,68.0,53.0,-100.00,South,175,7.0,14.0,58,0.00,,,-99.99,,2013-06-18 22:11:00,
2013-06-18 18:22:00,69.0,53.0,-100.00,East,95,4.0,11.0,56,0.00,,,-99.99,,2013-06-18 22:22:00,
2013-06-18 18:34:00,69.0,52.0,-100.00,East,95,4.0,12.0,54,0.00,,,-99.99,,2013-06-18 22:34:00,
2013-06-18 18:43:00,69.0,53.0,-100.00,South,190,5.0,11.0,55,0.00,,,-99.99,,2013-06-18 22:43:00,
2013-06-18 18:53:00,69.0,52.0,-100.00,East,100,4.0,12.0,54,0.00,,,-99.99,,2013-06-18 22:53:00,
2013-06-18 19:02:00,69.0,52.0,-100.00,East,100,4.0,12.0,54,0.00,,,-99.99,,2013-06-18 23:02:00,
2013-06-18 19:12:00,69.0,51.0,-100.00,South,170,4.0,10.0,53,0.00,,,-99.99,,2013-06-18 23:12:00,
2013-06-18 19:23:00,69.0,51.0,-100.00,South,175,4.0,10.0,52,0.00,,,-99.99,,2013-06-18 23:23:00,
2013-06-18 19:37:00,69.0,51.0,-100.00,South,175,4.0,10.0,52,0.00,,,-99.99,,2013-06-18 23:37:00,
2013-06-18 19:46:00,68.0,49.0,-100.00,East,95,2.0,12.0,51,0.00,,,-99.99,,2013-06-18 23:46:00,
2013-06-18 19:53:00,67.0,49.0,-100.00,South,170,4.0,10.0,51,0.00,,,-99.99,,2013-06-18 23:53:00,
2013-06-18 20:02:00,67.0,49.0,-100.00,South,185,3.0,7.0,51,0.00,,,-99.99,,2013-06-19 00:02:00,
2013-06-18 20:12:00,66.0,49.0,-100.00,SSE,165,2.0,8.0,52,0.00,,,-99.99,,2013-06-19 00:12:00,
2013-06-18 20:22:00,66.0,49.0,-100.00,South,185,1.0,7.0,52,0.00,,,-99.99,,2013-06-19 00:22:00,
2013-06-18 20:33:00,65.0,47.0,-100.00,SSE,165,4.0,9.0,52,0.00,,,-99.99,,2013-06-19 00:33:00,
2013-06-18 20:43:00,65.0,47.0,-100.00,ESE,105,2.0,7.0,52,0.00,,,-99.99,,2013-06-19 00:43:00,
2013-06-18 20:53:00,64.0,47.0,-100.00,SSE,165,2.0,7.0,53,0.00,,,-99.99,,2013-06-19 00:53:00,
2013-06-18 21:01:00,63.0,46.0,-100.00,SSW,200,1.0,6.0,53,0.00,,,-99.99,,2013-06-19 01:01:00,
2013-06-18 21:11:00,63.0,46.0,-100.00,SSW,200,1.0,6.0,53,0.00,,,-99.99,,2013-06-19 01:11:00,
2013-06-18 21:22:00,61.0,46.0,-100.00,South,180,2.0,4.0,57,0.00,,,-99.99,,2013-06-19 01:22:00,
2013-06-18 21:32:00,61.0,46.0,-100.00,SW,225,1.0,4.0,58,0.00,,,-99.99,,2013-06-19 01:32:00,
2013-06-18 21:43:00,61.0,46.0,-100.00,SSW,195,2.0,6.0,58,0.00,,,-99.99,,2013-06-19 01:43:00,
2013-06-18 21:53:00,60.0,46.0,-100.00,SSW,195,2.0,6.0,58,0.00,,,-99.99,,2013-06-19 01:53:00,
2013-06-18 22:01:00,60.0,46.0,-100.00,SSW,195,2.0,6.0,58,0.00,,,-99.99,,2013-06-19 02:01:00,
2013-06-18 22:11:00,60.0,46.0,-100.00,South,190,2.0,6.0,58,0.00,,,-99.99,,2013-06-19 02:11:00,
2013-06-18 22:21:00,59.0,45.0,-100.00,South,180,0.0,6.0,59,0.00,,,-99.99,,2013-06-19 02:21:00,
2013-06-18 22:32:00,59.0,45.0,-100.00,South,170,0.0,4.0,59,0.00,,,-99.99,,2013-06-19 02:32:00,
2013-06-18 22:42:00,59.0,45.0,-100.00,South,170,1.0,4.0,60,0.00,,,-99.99,,2013-06-19 02:42:00,
2013-06-18 22:52:00,58.0,45.0,-100.00,South,170,1.0,3.0,60,0.00,,,-99.99,,2013-06-19 02:52:00,
2013-06-18 23:01:00,58.0,45.0,-100.00,South,170,1.0,3.0,60,0.00,,,-99.99,,2013-06-19 03:01:00,
2013-06-18 23:11:00,58.0,45.0,-100.00,South,175,0.0,2.0,60,0.00,,,-99.99,,2013-06-19 03:11:00,
2013-06-18 23:22:00,58.0,45.0,-100.00,South,175,0.0,4.0,60,0.00,,,-99.99,,2013-06-19 03:22:00,
2013-06-18 23:33:00,58.0,44.0,-100.00,South,170,0.0,2.0,60,0.00,,,-99.99,,2013-06-19 03:33:00,
2013-06-18 23:42:00,58.0,44.0,-100.00,South,170,0.0,2.0,60,0.00,,,-99.99,,2013-06-19 03:42:00,
2013-06-18 23:52:00,58.0,44.0,-100.00,SSW,210,0.0,1.0,61,0.00,,,-99.99,,2013-06-19 03:52:00,